| time (UTC) | temp F | wind direction | speed MPH | gust MPH | rain 1hr in | rain 24hr in | rain mn in | humidity % | barometer mb |
| 20260508135009 | 53 | 258 | 2.0 | 3.0 | 0.00 | 0.26 | 0.26 | 88 | 1024.1 |
| 20260508134009 | 54 | 258 | 2.0 | 3.0 | 0.00 | 0.26 | 0.26 | 88 | 1024.1 |
| 20260508133009 | 54 | 256 | 2.0 | 5.0 | 0.00 | 0.26 | 0.26 | 88 | 1024.1 |
| 20260508132009 | 54 | 256 | 1.0 | 3.0 | 0.00 | 0.26 | 0.26 | 88 | 1024.2 |
| 20260508131010 | 54 | 254 | 2.0 | 5.0 | 0.00 | 0.26 | 0.26 | 88 | 1024.1 |
| 20260508130009 | 55 | 252 | 3.0 | 8.0 | 0.00 | 0.27 | 0.26 | 88 | 1024.1 |
| 20260508125009 | 55 | 252 | 3.0 | 7.0 | 0.00 | 0.27 | 0.26 | 87 | 1024.3 |
| 20260508124009 | 55 | 236 | 3.0 | 7.0 | 0.00 | 0.27 | 0.26 | 87 | 1024.3 |
| 20260508123010 | 55 | 257 | 3.0 | 7.0 | 0.00 | 0.27 | 0.26 | 87 | 1024.3 |
| 20260508122009 | 55 | 266 | 3.0 | 7.0 | 0.00 | 0.27 | 0.26 | 88 | 1024.3 |
| 20260508121009 | 55 | 267 | 2.0 | 6.0 | 0.00 | 0.27 | 0.26 | 87 | 1024.4 |
| 20260508120009 | 55 | 239 | 2.0 | 5.0 | 0.00 | 0.27 | 0.26 | 87 | 1024.4 |
| 20260508115009 | 55 | 235 | 3.0 | 7.0 | 0.00 | 0.27 | 0.26 | 87 | 1024.3 |
| 20260508114009 | 55 | 253 | 2.0 | 5.0 | 0.00 | 0.27 | 0.26 | 87 | 1024.2 |
| 20260508113009 | 55 | 246 | 1.0 | 3.0 | 0.00 | 0.27 | 0.26 | 87 | 1024.0 |
| 20260508112009 | 55 | 243 | 1.0 | 5.0 | 0.00 | 0.27 | 0.26 | 87 | 1024.0 |
| 20260508111009 | 54 | 241 | 2.0 | 5.0 | 0.00 | 0.27 | 0.26 | 88 | 1023.9 |
| 20260508110010 | 54 | 242 | 1.0 | 5.0 | 0.00 | 0.27 | 0.26 | 88 | 1024.0 |
| 20260508105009 | 54 | 242 | 3.0 | 7.0 | 0.00 | 0.27 | 0.26 | 88 | 1023.9 |
| 20260508104009 | 55 | 243 | 4.0 | 8.0 | 0.00 | 0.27 | 0.26 | 88 | 1023.8 |
| 20260508103009 | 54 | 280 | 2.0 | 8.0 | 0.00 | 0.27 | 0.26 | 87 | 1023.8 |
| 20260508102009 | 54 | 271 | 5.0 | 9.0 | 0.00 | 0.28 | 0.26 | 86 | 1023.6 |
| 20260508101009 | 55 | 240 | 2.0 | 7.0 | 0.00 | 0.28 | 0.26 | 85 | 1023.6 |
| 20260508100009 | 55 | 229 | 5.0 | 9.0 | 0.00 | 0.28 | 0.26 | 86 | 1023.4 |
| 20260508095009 | 55 | 234 | 4.0 | 9.0 | 0.00 | 0.29 | 0.26 | 87 | 1023.3 |
| 20260508094009 | 55 | 249 | 6.0 | 12.0 | 0.00 | 0.29 | 0.26 | 88 | 1023.4 |
| 20260508093009 | 55 | 252 | 6.0 | 14.0 | 0.00 | 0.29 | 0.26 | 88 | 1023.4 |
| 20260508092009 | 55 | 273 | 3.0 | 7.0 | 0.00 | 0.29 | 0.26 | 88 | 1023.5 |
| 20260508091009 | 55 | 283 | 2.0 | 6.0 | 0.00 | 0.30 | 0.26 | 88 | 1023.4 |
| 20260508090009 | 55 | 286 | 3.0 | 7.0 | 0.00 | 0.30 | 0.26 | 87 | 1023.4 |
| 20260508085009 | 55 | 275 | 5.0 | 9.0 | 0.00 | 0.30 | 0.26 | 87 | 1023.3 |
| 20260508084010 | 55 | 258 | 3.0 | 10.0 | 0.00 | 0.30 | 0.26 | 87 | 1023.1 |
| 20260508083009 | 55 | 210 | 5.0 | 17.0 | 0.00 | 0.30 | 0.26 | 87 | 1023.0 |
| 20260508082009 | 55 | 239 | 9.0 | 14.0 | 0.00 | 0.30 | 0.26 | 88 | 1022.9 |
| 20260508081009 | 55 | 237 | 4.0 | 8.0 | 0.00 | 0.30 | 0.26 | 87 | 1022.8 |
| 20260508080009 | 55 | 257 | 4.0 | 10.0 | 0.00 | 0.30 | 0.26 | 86 | 1022.7 |
| 20260508075009 | 55 | 260 | 3.0 | 10.0 | 0.00 | 0.30 | 0.26 | 85 | 1022.5 |
| 20260508074010 | 55 | 239 | 3.0 | 10.0 | 0.00 | 0.30 | 0.26 | 85 | 1022.6 |
| 20260508073009 | 55 | 246 | 5.0 | 10.0 | 0.00 | 0.31 | 0.26 | 85 | 1022.3 |
| 20260508072009 | 55 | 243 | 5.0 | 12.0 | 0.00 | 0.32 | 0.26 | 85 | 1022.3 |
| 20260508071009 | 57 | 242 | 9.0 | 15.0 | 0.00 | 0.35 | 0.26 | 83 | 1022.3 |
| 20260508070009 | 57 | 248 | 2.0 | 8.0 | 0.00 | 0.35 | 0.26 | 83 | 1022.2 |
| 20260508065010 | 57 | 221 | 3.0 | 9.0 | 0.00 | 0.35 | 0.26 | 83 | 1022.1 |
| 20260508064009 | 57 | 258 | 5.0 | 12.0 | 0.00 | 0.35 | 0.26 | 83 | 1022.0 |
| 20260508063009 | 58 | 224 | 5.0 | 12.0 | 0.00 | 0.35 | 0.26 | 82 | 1021.8 |
| 20260508062009 | 58 | 199 | 5.0 | 12.0 | 0.00 | 0.35 | 0.26 | 79 | 1022.0 |
| 20260508061009 | 59 | 234 | 6.0 | 12.0 | 0.00 | 0.35 | 0.26 | 79 | 1021.9 |
| 20260508060009 | 58 | 226 | 7.0 | 12.0 | 0.00 | 0.35 | 0.26 | 78 | 1021.8 |
| 20260508055009 | 58 | 233 | 9.0 | 16.0 | 0.00 | 0.35 | 0.26 | 77 | 1021.8 |
| 20260508054009 | 59 | 217 | 5.0 | 13.0 | 0.00 | 0.36 | 0.26 | 77 | 1021.7 |
| 20260508053009 | 58 | 219 | 5.0 | 12.0 | 0.00 | 0.36 | 0.26 | 79 | 1021.7 |
| 20260508052010 | 57 | 233 | 5.0 | 21.0 | 0.00 | 0.36 | 0.26 | 80 | 1021.8 |
| 20260508051009 | 58 | 208 | 10.0 | 21.0 | 0.00 | 0.36 | 0.26 | 79 | 1022.0 |
| 20260508050009 | 59 | 225 | 8.0 | 15.0 | 0.00 | 0.36 | 0.26 | 76 | 1021.5 |
| 20260508045008 | 60 | 234 | 9.0 | 18.0 | 0.00 | 0.36 | 0.26 | 77 | 1021.6 |
| 20260508044009 | 60 | 212 | 7.0 | 15.0 | 0.00 | 0.36 | 0.26 | 80 | 1021.5 |
| 20260508043009 | 59 | 222 | 6.0 | 20.0 | 0.00 | 0.36 | 0.26 | 82 | 1021.5 |
| 20260508042009 | 58 | 218 | 7.0 | 15.0 | 0.00 | 0.36 | 0.26 | 82 | 1021.6 |
| 20260508041009 | 58 | 222 | 6.0 | 15.0 | 0.00 | 0.36 | 0.26 | 83 | 1021.5 |
| 20260508040009 | 57 | 209 | 7.0 | 13.0 | 0.00 | 0.36 | 0.26 | 85 | 1021.5 |
| 20260508035009 | 58 | 204 | 10.0 | 23.0 | 0.00 | 0.36 | 0.26 | 83 | 1021.5 |
| 20260508034009 | 59 | 207 | 7.0 | 16.0 | 0.00 | 0.36 | 0.26 | 84 | 1021.4 |
| 20260508033009 | 59 | 223 | 5.0 | 12.0 | 0.00 | 0.36 | 0.26 | 83 | 1021.3 |
| 20260508032009 | 60 | 218 | 7.0 | 18.0 | 0.00 | 0.36 | 0.26 | 80 | 1021.3 |
| 20260508031009 | 61 | 210 | 8.0 | 16.0 | 0.00 | 0.36 | 0.26 | 76 | 1021.2 |
| 20260508030009 | 61 | 220 | 7.0 | 15.0 | 0.00 | 0.40 | 0.26 | 82 | 1021.0 |
| 20260508025009 | 59 | 227 | 6.0 | 15.0 | 0.00 | 0.40 | 0.26 | 83 | 1021.0 |
| 20260508024009 | 59 | 238 | 8.0 | 16.0 | 0.00 | 0.40 | 0.26 | 84 | 1021.1 |
| 20260508023009 | 58 | 222 | 6.0 | 14.0 | 0.00 | 0.40 | 0.26 | 85 | 1021.3 |
| 20260508022009 | 58 | 206 | 9.0 | 20.0 | 0.00 | 0.40 | 0.26 | 83 | 1021.3 |
| 20260508021009 | 59 | 217 | 7.0 | 14.0 | 0.00 | 0.40 | 0.26 | 83 | 1021.6 |
| 20260508020009 | 59 | 218 | 10.0 | 22.0 | 0.00 | 0.40 | 0.26 | 82 | 1021.4 |
| 20260508015009 | 61 | 210 | 13.0 | 20.0 | 0.00 | 0.40 | 0.26 | 78 | 1021.5 |
| 20260508014009 | 60 | 232 | 8.0 | 20.0 | 0.00 | 0.40 | 0.26 | 80 | 1021.5 |
| 20260508013010 | 60 | 245 | 12.0 | 20.0 | 0.00 | 0.40 | 0.26 | 82 | 1021.6 |
| 20260508012009 | 59 | 233 | 9.0 | 17.0 | 0.00 | 0.40 | 0.26 | 83 | 1021.4 |
| 20260508011009 | 58 | 217 | 7.0 | 17.0 | 0.00 | 0.44 | 0.26 | 85 | 1021.4 |
| 20260508010009 | 58 | 226 | 11.0 | 22.0 | 0.00 | 0.44 | 0.26 | 85 | 1021.5 |
| 20260508005009 | 58 | 235 | 12.0 | 25.0 | 0.00 | 0.44 | 0.26 | 85 | 1021.5 |
| 20260508004010 | 59 | 222 | 5.0 | 14.0 | 0.00 | 0.44 | 0.26 | 86 | 1021.2 |
| 20260508003009 | 58 | 232 | 9.0 | 15.0 | 0.00 | 0.44 | 0.26 | 87 | 1021.0 |
| 20260508002011 | 56 | 238 | 9.0 | 15.0 | 0.00 | 0.44 | 0.26 | 87 | 1021.0 |
| 20260508001009 | 57 | 249 | 9.0 | 18.0 | 0.00 | 0.44 | 0.26 | 87 | 1021.1 |
| 20260508000009 | 58 | 242 | 7.0 | 13.0 | 0.00 | 0.44 | 0.26 | 87 | 1020.9 |
| 20260507235009 | 57 | 243 | 6.0 | 12.0 | 0.01 | 0.44 | 0.26 | 88 | 1020.7 |
| 20260507234009 | 57 | 240 | 8.0 | 21.0 | 0.01 | 0.44 | 0.26 | 88 | 1020.5 |
| 20260507233009 | 57 | 237 | 12.0 | 16.0 | 0.01 | 0.44 | 0.26 | 90 | 1020.6 |
| 20260507232009 | 56 | 244 | 7.0 | 12.0 | 0.01 | 0.44 | 0.26 | 90 | 1020.7 |
| 20260507231009 | 56 | 222 | 6.0 | 13.0 | 0.01 | 0.45 | 0.26 | 90 | 1020.6 |
| 20260507230009 | 55 | 243 | 7.0 | 13.0 | 0.01 | 0.45 | 0.26 | 90 | 1020.5 |
| 20260507225009 | 55 | 222 | 6.0 | 12.0 | 0.00 | 0.44 | 0.25 | 90 | 1020.3 |
| 20260507224009 | 55 | 219 | 8.0 | 15.0 | 0.00 | 0.44 | 0.25 | 90 | 1020.2 |
| 20260507223009 | 55 | 229 | 6.0 | 12.0 | 0.00 | 0.44 | 0.25 | 90 | 1019.9 |
| 20260507222009 | 55 | 248 | 6.0 | 13.0 | 0.00 | 0.44 | 0.25 | 90 | 1019.8 |
| 20260507221009 | 55 | 228 | 7.0 | 10.0 | 0.00 | 0.44 | 0.25 | 90 | 1019.9 |
| 20260507220009 | 55 | 255 | 4.0 | 10.0 | 0.00 | 0.44 | 0.25 | 90 | 1019.6 |
| 20260507215009 | 54 | 248 | 6.0 | 12.0 | 0.00 | 0.44 | 0.25 | 90 | 1019.5 |
| 20260507214009 | 54 | 238 | 8.0 | 13.0 | 0.00 | 0.44 | 0.25 | 90 | 1019.3 |
| 20260507213009 | 54 | 246 | 6.0 | 16.0 | 0.01 | 0.44 | 0.25 | 90 | 1019.1 |
| 20260507212009 | 54 | 241 | 7.0 | 14.0 | 0.03 | 0.44 | 0.25 | 90 | 1019.0 |
| 20260507211009 | 54 | 244 | 7.0 | 15.0 | 0.03 | 0.44 | 0.25 | 90 | 1018.9 |
| 20260507210009 | 54 | 242 | 7.0 | 14.0 | 0.03 | 0.44 | 0.25 | 90 | 1019.0 |
| 20260507205009 | 54 | 239 | 8.0 | 15.0 | 0.03 | 0.44 | 0.25 | 90 | 1019.0 |
| 20260507204009 | 55 | 234 | 10.0 | 18.0 | 0.03 | 0.44 | 0.25 | 90 | 1018.8 |
| 20260507203009 | 55 | 237 | 9.0 | 15.0 | 0.02 | 0.43 | 0.24 | 90 | 1018.9 |
| 20260507202011 | 55 | 247 | 6.0 | 15.0 | 0.00 | 0.41 | 0.22 | 91 | 1018.6 |
| 20260507201010 | 55 | 230 | 9.0 | 17.0 | 0.00 | 0.41 | 0.22 | 91 | 1018.5 |
| 20260507200009 | 55 | 231 | 10.0 | 18.0 | 0.00 | 0.41 | 0.22 | 91 | 1018.5 |
| 20260507195010 | 55 | 246 | 7.0 | 14.0 | 0.00 | 0.42 | 0.22 | 91 | 1018.3 |
| 20260507194009 | 54 | 247 | 8.0 | 16.0 | 0.02 | 0.43 | 0.22 | 91 | 1018.2 |
| 20260507193010 | 54 | 246 | 10.0 | 20.0 | 0.02 | 0.45 | 0.22 | 91 | 1018.0 |
| 20260507192009 | 55 | 247 | 10.0 | 20.0 | 0.04 | 0.45 | 0.22 | 91 | 1018.0 |
| 20260507191008 | 54 | 240 | 7.0 | 16.0 | 0.04 | 0.45 | 0.22 | 90 | 1017.9 |
| 20260507190009 | 55 | 232 | 9.0 | 17.0 | 0.04 | 0.45 | 0.22 | 91 | 1017.9 |
| 20260507185009 | 55 | 245 | 9.0 | 15.0 | 0.04 | 0.51 | 0.22 | 90 | 1017.8 |
| 20260507184009 | 55 | 252 | 5.0 | 13.0 | 0.04 | 0.52 | 0.20 | 90 | 1017.8 |
| 20260507183009 | 54 | 242 | 7.0 | 16.0 | 0.04 | 0.54 | 0.20 | 90 | 1017.8 |
| 20260507182009 | 54 | 262 | 7.0 | 13.0 | 0.03 | 0.52 | 0.18 | 91 | 1017.6 |
| 20260507181009 | 54 | 282 | 7.0 | 14.0 | 0.05 | 0.52 | 0.18 | 91 | 1017.5 |
| 20260507180009 | 54 | 273 | 6.0 | 14.0 | 0.05 | 0.52 | 0.18 | 91 | 1017.5 |
| 20260507175009 | 54 | 255 | 5.0 | 13.0 | 0.07 | 0.53 | 0.18 | 91 | 1017.6 |
| 20260507174008 | 54 | 271 | 6.0 | 16.0 | 0.06 | 0.51 | 0.16 | 91 | 1017.3 |
| 20260507173009 | 54 | 262 | 9.0 | 15.0 | 0.06 | 0.51 | 0.16 | 91 | 1017.3 |
| 20260507172009 | 54 | 266 | 8.0 | 17.0 | 0.05 | 0.50 | 0.15 | 91 | 1017.2 |
| 20260507171009 | 54 | 280 | 8.0 | 16.0 | 0.05 | 0.49 | 0.13 | 90 | 1017.2 |
| 20260507170009 | 54 | 276 | 8.0 | 17.0 | 0.05 | 0.50 | 0.13 | 90 | 1017.2 |
| 20260507165009 | 54 | 265 | 7.0 | 14.0 | 0.03 | 0.48 | 0.11 | 90 | 1017.2 |
| 20260507164009 | 54 | 273 | 8.0 | 15.0 | 0.06 | 0.47 | 0.10 | 90 | 1017.0 |
| 20260507163009 | 54 | 275 | 9.0 | 17.0 | 0.06 | 0.47 | 0.10 | 90 | 1017.1 |
| 20260507162011 | 53 | 270 | 9.0 | 17.0 | 0.07 | 0.48 | 0.10 | 91 | 1017.2 |
| 20260507161009 | 53 | 273 | 9.0 | 18.0 | 0.05 | 0.46 | 0.08 | 91 | 1017.2 |
| 20260507160008 | 53 | 264 | 10.0 | 20.0 | 0.06 | 0.46 | 0.08 | 91 | 1017.3 |
| 20260507155009 | 53 | 262 | 9.0 | 18.0 | 0.06 | 0.46 | 0.08 | 91 | 1017.4 |
| 20260507154010 | 53 | 267 | 8.0 | 18.0 | 0.03 | 0.42 | 0.04 | 91 | 1017.4 |
| 20260507153009 | 53 | 277 | 10.0 | 18.0 | 0.03 | 0.42 | 0.04 | 91 | 1017.3 |
| 20260507152009 | 53 | 265 | 11.0 | 21.0 | 0.02 | 0.41 | 0.03 | 90 | 1017.5 |
| 20260507151009 | 53 | 267 | 10.0 | 20.0 | 0.03 | 0.41 | 0.03 | 90 | 1017.4 |
| 20260507150009 | 53 | 279 | 8.0 | 17.0 | 0.02 | 0.40 | 0.02 | 90 | 1017.6 |
| 20260507145009 | 53 | 278 | 10.0 | 18.0 | 0.02 | 0.40 | 0.02 | 90 | 1017.7 |
| 20260507144008 | 53 | 271 | 9.0 | 17.0 | 0.01 | 0.39 | 0.01 | 90 | 1017.6 |
| 20260507143009 | 53 | 271 | 7.0 | 17.0 | 0.01 | 0.39 | 0.01 | 90 | 1017.8 |
| 20260507142009 | 53 | 262 | 10.0 | 17.0 | 0.01 | 0.39 | 0.01 | 90 | 1017.7 |
| 20260507141009 | 52 | 263 | 10.0 | 20.0 | 0.00 | 0.38 | 0.00 | 90 | 1017.9 |
| 20260507140009 | 52 | 276 | 8.0 | 15.0 | 0.01 | 0.38 | 0.00 | 90 | 1017.9 |